This is the latest recevied weather packets stored in our database for station/object N7BTW-13. If no packets are shown the sender has not sent any weather packets the latest 10 day(s).
| Time | Temp. | Humidity | Pressure | Rain* | Wind** | Luminosity | Snow |
|---|---|---|---|---|---|---|---|
| 1788237905 | 21.11° C | 66% | - | 0 mm | - | - | - |
| 1788237309 | 21.67° C | 66% | - | 0 mm | - | - | - |
| 1788236706 | 21.67° C | 65% | - | 0 mm | - | - | - |
| 1788236109 | 22.22° C | 65% | - | 0 mm | - | - | - |
| 1788235506 | 22.22° C | 64% | - | 0 mm | - | - | - |
| 1788234906 | 22.78° C | 63% | - | 0 mm | - | - | - |
| 1788234307 | 23.33° C | 62% | - | 0 mm | - | - | - |
| 1788233707 | 23.89° C | 61% | - | 0 mm | - | - | - |
| 1788233107 | 23.89° C | 59% | - | 0 mm | - | - | - |
| 1788232508 | 24.44° C | 57% | - | 0 mm | - | - | - |
| 1788231906 | 25° C | 56% | - | 0 mm | - | - | - |
| 1788231307 | 25.56° C | 51% | - | 0 mm | - | - | - |
| 1788230709 | 26.11° C | 47% | - | 0 mm | - | - | - |
| 1788230107 | 27.22° C | 44% | - | 0 mm | - | - | - |
| 1788229506 | 28.33° C | 43% | - | 0 mm | - | - | - |
| 1788228908 | 28.33° C | 43% | - | 0 mm | - | - | - |
| 1788228307 | 28.89° C | 42% | - | 0 mm | - | - | - |
| 1788227712 | 28.89° C | 41% | - | 0 mm | - | - | - |
| 1788227107 | 30° C | 36% | - | 0 mm | - | - | - |
| 1788226506 | 30.56° C | 34% | - | 0 mm | - | - | - |
| 1788225911 | 31.11° C | 32% | - | 0 mm | - | - | - |
| 1788225311 | 31.11° C | 30% | - | 0 mm | - | - | - |
| 1788224708 | 31.67° C | 29% | - | 0 mm | - | - | - |
| 1788224107 | 31.11° C | 32% | - | 0 mm | - | - | - |
| 1788223506 | 30.56° C | 31% | - | 0 mm | - | - | - |
* Rain latest hour (hover to see other rain measurements)
** Current wind speed in m/s (hover to see current wind gust speed)